Вернуться в каталог

DELTA 1 DEB

АктивенSSO
NORAD 42652·DEBRIS·🇺🇸 United States

Запущен Jun 12, 1975 с Vandenberg Space Force Base

Loading…

Ближайшие Пролёты (ближайшие 24 часа)

TLE

СвежийSource: Space-Track

Эпоха: Sep 13, 2026, 05:00 UTC

1 42652U 75052MM  26256.20857730  .00000166  00000-0  41573-3 0  9997
2 42652  99.7890  38.7028 0073587 120.4441   3.6336 13.33228341622985

Отслеживайте DELTA 1 DEB в реальном времени с AllMySat

Download on the App Store